Location: Unspecified
(0.0000°N, 0.0000°E)
Time: 08:00:48
(UTC+00:00)

OV1 8 Rocket - Visible Passes

Search period start: 18 April 2026 00:00
Search period end: 28 April 2026 00:00
Orbit: 993 x 1006 km, 144.2° (Epoch: 17 April)

Date Brightness Start Highest point End Pass type
(mag) Time Alt. Az. Time Alt. Az. Time Alt. Az.
18 Apr 8.3 04:21:43 10° ENE 04:27:19 46° SSE 04:30:41 23° SSW visible
18 Apr 9.4 19:05:44 10° SSE 19:10:08 22° SSW 19:14:32 10° WSW visible
19 Apr 9.8 03:14:19 10° ESE 03:16:25 14° SE 03:16:25 14° SE visible
19 Apr 8.0 04:50:18 10° ENE 04:56:03 55° SSE 05:01:29 12° SW visible
19 Apr 9.5 19:34:57 10° S 19:38:47 18° SSW 19:42:42 10° WSW visible
20 Apr 9.5 03:42:18 10° ESE 03:45:57 17° SSE 03:47:10 16° SSE visible
20 Apr 7.9 05:18:55 10° ENE 05:24:46 66° SSE 05:30:38 10° SW visible
20 Apr 8.1 18:22:51 10° SE 18:28:41 58° SSW 18:34:32 10° WNW visible
20 Apr 9.6 20:05:44 14° S 20:07:27 15° SSW 20:10:44 10° WSW visible
21 Apr 9.4 04:10:26 10° ESE 04:14:38 20° SSE 04:17:56 13° S visible
21 Apr 8.3 18:51:41 10° SE 18:57:24 49° SSW 19:03:07 10° WNW visible
21 Apr 9.8 20:36:32 13° SSW 20:36:32 13° SSW 20:38:31 10° SW visible
22 Apr 9.2 04:38:41 10° E 04:43:18 24° SSE 04:47:56 10° SSW visible
22 Apr 8.5 19:22:16 19° SSE 19:26:07 41° SSW 19:31:38 10° W visible
23 Apr 9.0 05:07:02 10° E 05:12:00 29° SSE 05:16:59 10° SSW visible
23 Apr 8.7 19:53:03 29° S 19:54:49 34° SSW 20:00:07 10° W visible
24 Apr 7.6 18:38:46 11° ESE 18:44:35 75° NNE 18:50:32 10° NW visible
24 Apr 8.9 20:23:50 29° SW 20:23:50 29° SW 20:28:31 10° W visible
25 Apr 9.9 04:29:58 10° SE 04:30:47 10° SSE 04:31:37 10° SSE visible
25 Apr 7.5 19:09:33 25° ESE 19:13:18 89° NE 19:19:17 10° NW visible
25 Apr 9.6 20:54:35 19° WSW 20:54:35 19° WSW 20:56:51 10° W visible
26 Apr 9.8 04:57:01 10° SE 04:59:25 13° SSE 05:01:49 10° S visible
26 Apr 7.5 19:40:17 49° SE 19:42:01 78° SSW 19:47:59 10° WNW visible
27 Apr 9.7 05:24:49 10° ESE 05:28:04 15° SSE 05:31:19 10° S visible
27 Apr 8.5 18:26:33 10° E 18:31:47 33° NNE 18:37:00 10° NNW visible
27 Apr 7.7 20:11:00 64° SW 20:11:00 64° SW 20:16:39 10° WNW visible
